Regional Weather Roundup
Issued by NWS

Home | Current Version | Previous Version | Text Only | Print | Product List | Glossary On
Versions: 1 2 3 4 5 6 7 8 9 10 11 12 13 14 15 16 17 18 19 20 21 22 23 24 25 26 27
000
ASCA42 TJSJ 301110
RWRPR
PUERTO RICO/U.S. VIRGIN ISLANDS HOURLY WEATHER ROUNDUP
NATIONAL WEATHER SERVICE SAN JUAN PR
700 AM AST FRI SEP 30 2016

PRZ001>002-007>008-010-301200-
PUERTO RICO

CITY           SKY/WX    TMP DP  RH WIND       PRES   REMARKS
SAN JUAN LMM   NOT AVBL
AGUADILLA      PTCLDY    75  73  94 E12       29.92
CEIBA          SUNNY     81  77  89 E10       29.94R
$$

VIZ001>002-301200-
U.S. VIRGIN ISLANDS

CITY           SKY/WX    TMP DP  RH WIND       PRES   REMARKS
CHARLOTTE AMA  SUNNY     82  75  78 NE12      29.91R
CHRISTIANSTED  MOSUNNY   79  75  89 E9        29.92R
$$

HOURLY WEATHER ROUNDUP FOR THE NEWS MEDIA

CITY           SKY/WX    TMP DP  RH WIND       PRES   REMARKS
ORLANDO        CLEAR     75  72  90 SE3       30.02R
NEW YORK       LGT RAIN  59  54  83 NE24      30.29R
NEWARK         LGT RAIN  58  51  78 NE18G26   30.29R
CHICAGO        CLOUDY    61  58  90 NE10      30.15S
HARTFORD       PTCLDY    60  53  77 NE14      30.39S
BOSTON         CLOUDY    58  52  80 NE18      30.45S
DALLAS         PTCLDY    57  52  83 N5        30.21R
PHILADELPHIA   LGT RAIN  57  55  93 NE16      30.22S FOG
LOS ANGELES    CLEAR     68  63  84 CALM      30.01F
WASHINGTON DC  CLOUDY    60  57  89 NE14      30.15R



USA.gov is the U.S. government's official web portal to all federal, state and local government web resources and services.